N9XP-9 Weather Reports


time (UTC)temp
F
wind
direction
speed
knots
gust
knots
rain 1hr
in
rain 24hr
in
rain mn
in
humidity
%
barometer
mb
20260906121549 67 20 0.0 2.6 0.00 0.00 0.00 96 1018.2
20260906120048 66 350 0.0 0.9 0.00 0.00 0.00 96 1018.0
20260906114557 66 351 0.0 1.7 0.00 0.00 0.00 96 1017.7
20260906113045 66 2 0.0 2.6 0.00 0.00 0.00 96 1017.5
20260906111543 66 357 0.0 2.6 0.00 0.00 0.00 96 1017.3
20260906110040 66 347 0.0 2.6 0.00 0.00 0.00 96 1017.3
20260906104542 66 356 0.0 1.7 0.00 0.00 0.00 96 1017.2
20260906103037 66 11 0.0 1.7 0.00 0.00 0.00 96 1016.8
20260906101536 66 13 0.0 2.6 0.00 0.00 0.00 96 1016.8
20260906100039 66 359 0.9 2.6 0.00 0.00 0.00 96 1016.8
20260906094536 67 359 0.9 5.2 0.00 0.00 0.00 96 1016.6
20260906093032 67 338 0.9 4.3 0.00 0.00 0.00 96 1016.6
20260906091535 67 3 0.9 2.6 0.00 0.00 0.00 96 1016.6
20260906090030 67 13 0.9 3.5 0.00 0.00 0.00 95 1016.5
20260906084529 67 356 0.9 2.6 0.00 0.00 0.00 95 1016.4
20260906083029 67 8 0.0 2.6 0.00 0.00 0.00 95 1016.4
20260906081527 68 16 0.0 0.9 0.00 0.00 0.00 95 1016.6
20260906080026 68 20 0.0 0.9 0.00 0.00 0.00 94 1016.7
20260906074528 68 18 0.0 0.9 0.00 0.00 0.00 94 1016.7
20260906073026 69 20 0.0 0.9 0.00 0.00 0.00 93 1016.6
20260906071525 69 344 0.0 1.7 0.00 0.00 0.00 93 1016.7
20260906070020 69 343 0.0 1.7 0.00 0.00 0.00 93 1016.8
20260906064520 69 6 0.9 2.6 0.00 0.00 0.00 92 1016.8
20260906063018 70 359 0.9 2.6 0.00 0.00 0.00 92 1016.7
20260906061518 70 349 0.0 4.3 0.00 0.00 0.00 91 1016.6
20260906060015 70 357 0.0 7.0 0.00 0.00 0.00 90 1016.5
20260906054513 71 8 0.9 4.3 0.00 0.00 0.00 89 1016.6
20260906053010 71 36 0.9 3.5 0.00 0.00 0.00 89 1016.5
20260906051508 71 352 0.9 6.1 0.00 0.00 0.00 89 1016.4
20260906050006 71 350 0.9 6.1 0.00 0.00 0.00 89 1016.3
20260906044504 71 5 0.9 5.2 0.00 0.00 0.00 89 1016.2
20260906043002 71 353 0.0 4.3 0.00 0.00 0.00 89 1016.1
20260906041600 71 4 0.9 6.1 0.00 0.00 0.00 89 1015.8
20260906040118 71 349 0.0 3.5 0.00 0.00 0.00 89 1015.6
20260906034657 71 3 0.0 4.3 0.00 0.00 0.00 89 1015.5
20260906033106 71 6 0.9 5.2 0.00 0.00 0.00 88 1015.3
20260906031559 71 101 0.0 3.5 0.00 0.00 0.00 87 1015.4
20260906030054 71 316 0.0 7.8 0.00 0.00 0.00 87 1015.3
20260906024605 71 352 0.0 5.2 0.00 0.00 0.00 87 1015.4
20260906023053 72 24 0.9 3.5 0.00 0.00 0.00 87 1015.4
20260906021553 72 335 1.7 5.2 0.00 0.00 0.00 87 1015.3
20260906020054 72 19 1.7 6.1 0.00 0.00 0.00 86 1015.2
20260906014556 72 346 0.9 7.0 0.00 0.00 0.00 86 1015.4
20260906013050 72 25 0.0 4.3 0.00 0.00 0.00 86 1015.4
20260906011548 72 341 1.7 7.8 0.00 0.00 0.00 85 1015.3
20260906010046 72 359 2.6 7.8 0.00 0.00 0.00 85 1015.3
20260906004545 72 352 0.9 7.8 0.00 0.00 0.00 86 1015.2
20260906003044 72 39 2.6 10.4 0.00 0.00 0.00 86 1014.9
20260906001541 72 22 1.7 7.8 0.00 0.00 0.00 86 1014.8
20260906000041 73 349 0.9 5.2 0.00 0.00 0.00 85 1014.5
20260905234537 75 358 1.7 7.0 0.00 0.00 0.00 83 1014.4
20260905233040 76 8 0.9 7.0 0.00 0.00 0.00 82 1014.5
20260905231541 77 12 1.7 8.7 0.00 0.00 0.00 79 1014.2
20260905230032 79 81 0.0 4.3 0.00 0.00 0.00 77 1014.0
20260905224531 80 6 1.7 9.6 0.00 0.00 0.00 75 1013.8
20260905223034 81 214 0.0 7.0 0.00 0.00 0.00 74 1013.7
20260905221534 81 2 1.7 7.0 0.00 0.00 0.00 74 1013.5
20260905220029 81 335 0.9 6.1 0.00 0.00 0.00 72 1013.6
20260905214534 81 34 1.7 6.1 0.00 0.00 0.00 73 1013.7
20260905213029 83 10 0.9 6.1 0.00 0.00 0.00 71 1013.6
20260905211534 81 340 1.7 4.3 0.00 0.00 0.00 73 1013.6
20260905210026 81 6 1.7 7.0 0.00 0.00 0.00 74 1013.7
20260905204528 81 2 1.7 7.8 0.00 0.00 0.00 74 1013.8
20260905203025 80 331 0.9 3.5 0.00 0.00 0.00 78 1013.9
20260905201524 79 18 2.6 5.2 0.00 0.00 0.00 79 1014.0
20260905200024 78 342 3.5 7.8 0.00 0.00 0.00 80 1014.0
20260905194623 78 330 2.6 6.1 0.00 0.00 0.00 81 1014.1
20260905193022 78 3 1.7 6.1 0.00 0.00 0.00 81 1014.0
20260905191522 78 23 1.7 7.8 0.00 0.00 0.00 80 1014.2
20260905190021 78 34 1.7 8.7 0.00 0.00 0.00 81 1014.3
20260905184522 79 352 3.5 7.8 0.00 0.00 0.00 80 1014.2
20260905183020 79 351 4.3 8.7 0.00 0.00 0.00 78 1014.3
20260905181519 79 358 3.5 7.0 0.00 0.00 0.00 79 1014.2
20260905180017 80 359 1.7 10.4 0.00 0.00 0.00 79 1014.1
20260905174517 80 7 3.5 7.8 0.00 0.00 0.00 78 1014.1
20260905173016 81 335 1.7 6.1 0.00 0.00 0.00 77 1014.0
20260905171529 81 25 2.6 7.0 0.00 0.00 0.00 78 1014.0
20260905170015 81 18 2.6 7.0 0.00 0.00 0.00 78 1014.1
20260905164522 81 29 0.9 7.0 0.00 0.00 0.00 78 1014.1
20260905163012 82 342 1.7 4.3 0.00 0.00 0.00 76 1014.1
20260905161511 81 353 2.6 5.2 0.00 0.00 0.00 78 1014.1
20260905160020 81 151 0.0 5.2 0.00 0.00 0.00 79 1014.1
20260905154508 80 262 0.0 5.2 0.00 0.00 0.00 82 1013.9
20260905153005 79 356 1.7 4.3 0.00 0.00 0.00 82 1014.0
20260905151503 78 5 0.9 7.8 0.00 0.00 0.00 85 1013.8
20260905150001 78 8 1.7 7.0 0.00 0.00 0.00 84 1013.6
20260905144501 78 1 3.5 7.8 0.00 0.00 0.00 84 1013.4
20260905143100 77 23 2.6 8.7 0.00 0.00 0.00 85 1013.4
20260905141600 76 354 2.6 6.1 0.00 0.00 0.00 88 1013.4
20260905140101 75 8 0.9 7.0 0.00 0.00 0.00 91 1013.3
20260905134557 74 5 0.9 5.2 0.00 0.00 0.00 92 1013.3
20260905133056 74 22 0.9 7.0 0.00 0.00 0.00 93 1013.4
20260905131556 74 16 2.6 6.1 0.00 0.00 0.00 94 1013.7
20260905130052 74 348 0.0 5.2 0.00 0.00 0.00 94 1013.1
20260905124550 74 25 0.0 4.3 0.00 0.00 0.00 94 1012.7
20260905123050 74 6 0.0 3.5 0.00 0.00 0.00 95 1012.6